Birmingham, United Kingdom

8:59 AM BST on June 29, 2017 (GMT +0100)
Birmingham

Weather History for EGBB - November, 2012

Change the Weather History Date:

Friday, November 2, 2012

  Actual Average Record
Temperature  
Mean Temperature 44 °F -  
Max Temperature 48 °F 49 °F 60 °F (1996)
Min Temperature 39 °F 37 °F 33 °F (2016)
Degree Days  
Heating Degree Days 22    
Moisture  
Dew Point 38 °F    
Average Humidity 85    
Maximum Humidity 93    
Minimum Humidity 66    
Precipitation  
Precipitation 0.00 in 0.08 in - ()
Sea Level Pressure  
Sea Level Pressure 29.19 in    
Wind  
Wind Speed 8 mph ()    
Max Wind Speed 12 mph    
Max Gust Speed -    
Visibility 6.2 miles    
Events      
Averages and records for this station are not official NWS values.
T = Trace of Precipitation, MM = Missing Value Source: Averaged Metar Reports

Daily Weather History Graph

Daily Weather History Graph

Search for Another Location

Airport or City:

Trip Planner

Search our weather history database for the weather conditions in past years. The results will help you decide how hot, cold, wet, or windy it might be!

Date:

Astronomy

Nov. 02, 2012 Rise Set
Actual Time 7:05 AM GMT 4:34 PM GMT
Civil Twilight 6:29 AM GMT 5:10 PM GMT
Nautical Twilight 5:48 AM GMT 5:51 PM GMT
Astronomical Twilight 5:09 AM GMT 6:30 PM GMT
Moon 6:52 PM GMT (11/2) 10:32 AM GMT (11/2)
Length of Visible Light 10h 41m
Length of Day
9h 29m
Waning Gibbous, 88% of the Moon is Illuminated
Nov 2
Waning Gibbous
Nov 7
Last Quarter
Nov 13
New
Nov 20
First Quarter
Nov 28
Full

Hourly Weather History & Observations

Time (GMT) Temp. Windchill Dew Point Humidity Pressure Visibility Wind Dir Wind Speed Gust Speed Precip Events Conditions
12:20 AM 39.2 °F 34.2 °F 37.4 °F 93% 29.03 in 6.2 mi SW 6.9 mph - N/A   Partly Cloudy
12:50 AM 39.2 °F 33.6 °F 37.4 °F 93% 29.03 in 6.2 mi SSW 8.1 mph - N/A   Scattered Clouds
1:20 AM 39.2 °F 33.6 °F 37.4 °F 93% 29.06 in 6.2 mi SW 8.1 mph - N/A   Partly Cloudy
1:50 AM 39.2 °F 33.0 °F 37.4 °F 93% 29.06 in 6.2 mi SSW 9.2 mph - N/A   Partly Cloudy
2:20 AM 39.2 °F 33.6 °F 37.4 °F 93% 29.09 in 6.2 mi SSW 8.1 mph - N/A   Scattered Clouds
2:50 AM 39.2 °F 34.2 °F 37.4 °F 93% 29.09 in 6.2 mi SW 6.9 mph - N/A   Unknown
3:20 AM 41.0 °F 35.2 °F 37.4 °F 87% 29.09 in 6.2 mi SW 9.2 mph - N/A   Partly Cloudy
3:50 AM 39.2 °F 33.0 °F 37.4 °F 93% 29.09 in - SSW 9.2 mph - N/A   Clear
4:20 AM 41.0 °F 35.8 °F 37.4 °F 87% 29.12 in - SSW 8.1 mph - N/A   Clear
4:50 AM 39.2 °F 35.0 °F 37.4 °F 93% 29.12 in - SSW 5.8 mph - N/A   Clear
5:20 AM 41.0 °F 36.4 °F 37.4 °F 87% 29.12 in - SW 6.9 mph - N/A   Clear
5:50 AM 41.0 °F 36.4 °F 37.4 °F 87% 29.12 in - SW 6.9 mph - N/A   Clear
6:20 AM 41.0 °F 35.2 °F 37.4 °F 87% 29.12 in - SW 9.2 mph - N/A   Clear
6:50 AM 41.0 °F 34.7 °F 35.6 °F 81% 29.12 in 6.2 mi SW 10.4 mph - N/A   Partly Cloudy
7:20 AM 41.0 °F 34.7 °F 37.4 °F 87% 29.15 in 6.2 mi SW 10.4 mph - N/A   Partly Cloudy
7:50 AM 41.0 °F 35.2 °F 37.4 °F 87% 29.15 in 6.2 mi SW 9.2 mph - N/A   Partly Cloudy
8:20 AM 41.0 °F 35.2 °F 37.4 °F 87% 29.15 in 6.2 mi SW 9.2 mph - N/A   Partly Cloudy
8:50 AM 41.0 °F 35.2 °F 37.4 °F 87% 29.15 in 6.2 mi SW 9.2 mph - N/A   Partly Cloudy
9:20 AM 41.0 °F 34.7 °F 37.4 °F 87% 29.15 in 6.2 mi SW 10.4 mph - N/A   Partly Cloudy
9:50 AM 41.0 °F 35.8 °F 37.4 °F 87% 29.15 in 6.2 mi SW 8.1 mph - N/A   Partly Cloudy
10:20 AM 41.0 °F 34.3 °F 37.4 °F 87% 29.18 in 6.2 mi SW 11.5 mph - N/A   Partly Cloudy
10:50 AM 42.8 °F 37.0 °F 37.4 °F 81% 29.18 in 6.2 mi SW 10.4 mph - N/A   Partly Cloudy
11:20 AM 44.6 °F 39.2 °F 39.2 °F 81% 29.18 in 6.2 mi SW 10.4 mph - N/A   Partly Cloudy
11:50 AM 44.6 °F 39.7 °F 37.4 °F 76% 29.18 in 6.2 mi SW 9.2 mph - N/A   Scattered Clouds
12:20 PM 44.6 °F 39.7 °F 37.4 °F 76% 29.18 in 6.2 mi WSW 9.2 mph - N/A   Scattered Clouds
12:50 PM 44.6 °F 39.7 °F 37.4 °F 76% 29.18 in 6.2 mi SW 9.2 mph - N/A   Scattered Clouds
1:20 PM 46.4 °F 41.5 °F 37.4 °F 71% 29.18 in 6.2 mi SW 10.4 mph - N/A   Partly Cloudy
1:50 PM 46.4 °F 41.5 °F 37.4 °F 71% 29.18 in 6.2 mi WSW 10.4 mph - N/A   Partly Cloudy
2:20 PM 48.2 °F - 37.4 °F 66% 29.18 in 6.2 mi SW 9.2 mph - N/A   Partly Cloudy
2:50 PM 46.4 °F 42.4 °F 37.4 °F 71% 29.18 in 6.2 mi WSW 8.1 mph - N/A   Partly Cloudy
3:20 PM 46.4 °F 41.5 °F 37.4 °F 71% 29.21 in 6.2 mi SW 10.4 mph - N/A   Partly Cloudy
3:50 PM 46.4 °F 42.4 °F 37.4 °F 71% 29.21 in 6.2 mi SW 8.1 mph - N/A   Partly Cloudy
4:20 PM 44.6 °F 40.7 °F 37.4 °F 76% 29.24 in 6.2 mi SW 6.9 mph - N/A   Partly Cloudy
4:50 PM 44.6 °F 41.4 °F 37.4 °F 76% 29.24 in - SW 5.8 mph - N/A   Clear
5:20 PM 42.8 °F 38.6 °F 39.2 °F 87% 29.24 in - SSW 6.9 mph - N/A   Clear
5:50 PM 42.8 °F 38.6 °F 39.2 °F 87% 29.24 in - SSW 6.9 mph - N/A   Clear
6:20 PM 42.8 °F 39.3 °F 39.2 °F 87% 29.24 in - SW 5.8 mph - N/A   Clear
6:50 PM 42.8 °F 39.3 °F 39.2 °F 87% 29.27 in - SW 5.8 mph - N/A   Clear
7:20 PM 41.0 °F 36.4 °F 39.2 °F 93% 29.27 in - SW 6.9 mph - N/A   Clear
7:50 PM 41.0 °F 35.8 °F 37.4 °F 87% 29.27 in - SSW 8.1 mph - N/A   Clear
8:20 PM 41.0 °F 35.8 °F 37.4 °F 87% 29.30 in - SW 8.1 mph - N/A   Clear
8:50 PM 41.0 °F 36.4 °F 37.4 °F 87% 29.30 in - SW 6.9 mph - N/A   Clear
9:20 PM 41.0 °F 35.8 °F 37.4 °F 87% 29.30 in - SW 8.1 mph - N/A   Clear
9:50 PM 39.2 °F 35.0 °F 37.4 °F 93% 29.33 in - SW 5.8 mph - N/A   Clear
10:20 PM 39.2 °F 34.2 °F 37.4 °F 93% 29.33 in - SSW 6.9 mph - N/A   Clear
10:50 PM 41.0 °F 36.4 °F 37.4 °F 87% 29.33 in - SW 6.9 mph - N/A   Clear
11:20 PM 39.2 °F 34.2 °F 37.4 °F 93% 29.33 in - SW 6.9 mph - N/A   Clear
11:50 PM 39.2 °F 35.9 °F 37.4 °F 93% 29.33 in - SW 4.6 mph - N/A   Clear